Satellite-Ground Cal/Val Site Overpasses Predictions

Prediction of Satellite NPP Overpassing Cal/Val Site: Antarctic Dome C

Ground Cal/Val Site Location: Latitude: -75.10, Longitude: 123.35; Satellite-Ground Site NADIR distance within 100 km.

Table of predicted overpasses for the next 14.0 days since TLE Epoch: 1/23/2021
Interval Starting Time Ending Time Minimum Distance Time Minimum Distance (km)
1 01/24/2021 14:54:31 01/24/2021 14:55:00 01/24/2021 14:54:45 20.69
2 01/25/2021 14:35:49 01/25/2021 14:36:03 01/25/2021 14:35:56 86.34
3 01/26/2021 07:37:21 01/26/2021 07:37:48 01/26/2021 07:37:35 36.17
4 01/27/2021 07:18:36 01/27/2021 07:18:55 01/27/2021 07:18:45 73.95
5 01/29/2021 15:00:49 01/29/2021 15:01:13 01/29/2021 15:01:01 57.81
6 01/30/2021 14:42:00 01/30/2021 14:42:25 01/30/2021 14:42:12 51.36
7 01/31/2021 07:43:41 01/31/2021 07:44:01 01/31/2021 07:43:51 71.45
8 02/01/2021 07:24:48 02/01/2021 07:25:15 02/01/2021 07:25:01 36.60
9 02/03/2021 15:07:14 02/03/2021 15:07:22 02/03/2021 15:07:18 95.61
